EFW2JH EGKK-LOWI

Flight info

Callsign EFW2JH
Flight time 1h 21m
Altitude 37000
Route DVR L9 KONAN DCT KOK UL607 FERDI DCT REMBA DCT LIRSU DCT KRH DCT TEDGO/N0442F350 DCT BATUB/N0436F310 M738 MADEB MADEB1B
Aircraft A320/M-SDE3FGHIRWY/LB1

Departure

Time 2026-05-04 11:47
Airport London Gatwick Airport (EGKK)

Arrival

Time 2026-05-04 13:08
Airport Innsbruck Airport (LOWI)
Time Latitude Longitude Altitude Speed Heading
2026-05-04 11:16 51.15899 -0.16769 204 ft 0 kts 206°
2026-05-04 11:33 51.15904 -0.16765 204 ft 4 kts 206°
2026-05-04 11:33 51.15926 -0.16748 204 ft 2 kts 206°
2026-05-04 11:34 51.15945 -0.16727 206 ft 4 kts 245°
2026-05-04 11:34 51.15947 -0.16689 216 ft 4 kts 295°
2026-05-04 11:34 51.15931 -0.16660 204 ft 3 kts 336°
2026-05-04 11:34 51.15915 -0.16648 204 ft 0 kts 336°
2026-05-04 11:37 51.15916 -0.16649 204 ft 1 kts 336°
2026-05-04 11:37 51.15940 -0.16673 211 ft 6 kts 318°
2026-05-04 11:37 51.15964 -0.16741 204 ft 8 kts 292°
2026-05-04 11:37 51.15975 -0.16866 211 ft 14 kts 265°
2026-05-04 11:38 51.15932 -0.17012 211 ft 13 kts 226°
2026-05-04 11:38 51.15857 -0.17075 207 ft 13 kts 192°
2026-05-04 11:38 51.15806 -0.17184 211 ft 14 kts 257°
2026-05-04 11:38 51.15783 -0.17347 204 ft 16 kts 258°
2026-05-04 11:39 51.15758 -0.17528 204 ft 17 kts 257°
2026-05-04 11:39 51.15731 -0.17727 209 ft 19 kts 257°
2026-05-04 11:40 51.15355 -0.18264 204 ft 18 kts 167°
2026-05-04 11:41 51.15249 -0.18227 207 ft 14 kts 168°
2026-05-04 11:41 51.15187 -0.18307 215 ft 15 kts 264°
2026-05-04 11:41 51.15165 -0.18474 207 ft 16 kts 257°
2026-05-04 11:41 51.15140 -0.18660 206 ft 18 kts 258°
2026-05-04 11:42 51.15111 -0.18868 212 ft 20 kts 257°
2026-05-04 11:42 51.15082 -0.19086 210 ft 19 kts 257°
2026-05-04 11:42 51.15052 -0.19301 206 ft 20 kts 258°
2026-05-04 11:42 51.15021 -0.19521 204 ft 21 kts 257°
2026-05-04 11:43 51.14989 -0.19753 204 ft 23 kts 258°
2026-05-04 11:43 51.14955 -0.20003 214 ft 22 kts 257°
2026-05-04 11:43 51.14922 -0.20247 203 ft 23 kts 258°
2026-05-04 11:43 51.14885 -0.20507 203 ft 24 kts 258°
2026-05-04 11:44 51.14850 -0.20762 206 ft 22 kts 258°
2026-05-04 11:44 51.14820 -0.20980 208 ft 18 kts 258°
2026-05-04 11:44 51.14791 -0.21153 209 ft 15 kts 246°
2026-05-04 11:44 51.14763 -0.21320 204 ft 15 kts 260°
2026-05-04 11:45 51.14704 -0.21399 204 ft 12 kts 172°
2026-05-04 11:45 51.14640 -0.21337 207 ft 11 kts 156°
2026-05-04 11:45 51.14616 -0.21326 204 ft 1 kts 167°
2026-05-04 11:45 51.14582 -0.21313 209 ft 8 kts 162°
2026-05-04 11:46 51.14524 -0.21224 211 ft 15 kts 110°
2026-05-04 11:46 51.14534 -0.21063 203 ft 16 kts 77°
2026-05-04 11:46 51.14595 -0.20627 208 ft 72 kts 77°
2026-05-04 11:46 51.14745 -0.19537 210 ft 126 kts 78°
2026-05-04 11:47 51.14956 -0.17964 353 ft 153 kts 77°
2026-05-04 11:47 51.15170 -0.16315 897 ft 154 kts 77°
2026-05-04 11:47 51.15401 -0.14607 1401 ft 161 kts 78°
2026-05-04 11:47 51.15647 -0.12744 1667 ft 182 kts 78°
2026-05-04 11:48 51.15935 -0.10667 1946 ft 202 kts 77°
2026-05-04 11:48 51.16252 -0.08369 2197 ft 226 kts 78°
2026-05-04 11:48 51.16598 -0.05806 2501 ft 252 kts 78°
2026-05-04 11:48 51.16888 -0.03010 3282 ft 259 kts 89°
2026-05-04 11:49 51.16875 -0.00123 4167 ft 262 kts 91°
2026-05-04 11:49 51.16828 0.02802 4968 ft 267 kts 92°
2026-05-04 11:49 51.16753 0.05791 5774 ft 272 kts 93°
2026-05-04 11:49 51.16681 0.08820 6576 ft 276 kts 93°
2026-05-04 11:50 51.16614 0.11920 7356 ft 280 kts 93°
2026-05-04 11:50 51.16551 0.15037 8150 ft 283 kts 92°
2026-05-04 11:50 51.16519 0.18194 8943 ft 287 kts 91°
2026-05-04 11:50 51.16524 0.21395 9725 ft 290 kts 91°
2026-05-04 11:51 51.16540 0.24633 10432 ft 294 kts 91°
2026-05-04 11:51 51.16557 0.27909 11118 ft 297 kts 91°
2026-05-04 11:51 51.16574 0.31223 11814 ft 301 kts 91°
2026-05-04 11:51 51.16586 0.34574 12502 ft 304 kts 91°
2026-05-04 11:52 51.16591 0.37957 13183 ft 307 kts 91°
2026-05-04 11:52 51.16591 0.41382 13849 ft 311 kts 91°
2026-05-04 11:52 51.16590 0.44843 14459 ft 314 kts 91°
2026-05-04 11:52 51.16589 0.48327 15071 ft 316 kts 91°
2026-05-04 11:53 51.16587 0.51900 15339 ft 332 kts 91°
2026-05-04 11:53 51.16584 0.55690 15472 ft 351 kts 91°
2026-05-04 11:53 51.16580 0.59669 15705 ft 365 kts 91°
2026-05-04 11:53 51.16576 0.63742 16201 ft 370 kts 91°
2026-05-04 11:55 51.16503 0.93269 20028 ft 394 kts 92°
2026-05-04 11:55 51.16485 0.97656 20511 ft 398 kts 92°
2026-05-04 11:56 51.16468 1.02088 20980 ft 402 kts 92°
2026-05-04 11:56 51.16448 1.06566 21447 ft 406 kts 92°
2026-05-04 11:56 51.16424 1.11085 21910 ft 410 kts 92°
2026-05-04 11:56 51.16399 1.15649 22363 ft 414 kts 92°
2026-05-04 11:57 51.16371 1.20261 22823 ft 417 kts 92°
2026-05-04 11:57 51.16340 1.24909 23275 ft 421 kts 92°
2026-05-04 11:57 51.16306 1.29596 23695 ft 425 kts 92°
2026-05-04 11:57 51.16273 1.34319 24075 ft 427 kts 92°
2026-05-04 11:58 51.16197 1.39061 24453 ft 429 kts 95°
2026-05-04 11:58 51.16022 1.43810 24831 ft 430 kts 96°
2026-05-04 11:58 51.15781 1.48565 25235 ft 431 kts 97°
2026-05-04 11:58 51.15510 1.53323 25619 ft 433 kts 98°
2026-05-04 11:59 51.15233 1.58103 25986 ft 434 kts 98°
2026-05-04 11:59 51.14966 1.62899 26347 ft 437 kts 98°
2026-05-04 11:59 51.14712 1.67683 26744 ft 439 kts 97°
2026-05-04 11:59 51.14467 1.72535 27136 ft 440 kts 97°
2026-05-04 12:00 51.14227 1.77407 27507 ft 442 kts 97°
2026-05-04 12:00 51.13986 1.82294 27866 ft 444 kts 98°
2026-05-04 12:00 51.13738 1.87201 28220 ft 445 kts 98°
2026-05-04 12:00 51.13486 1.92128 28530 ft 447 kts 98°
2026-05-04 12:01 51.13230 1.97064 28867 ft 449 kts 98°
2026-05-04 12:01 51.12974 2.02034 29229 ft 450 kts 98°
2026-05-04 12:02 51.11382 2.31581 31741 ft 444 kts 99°
2026-05-04 12:03 51.11111 2.36464 32111 ft 444 kts 100°
2026-05-04 12:03 51.10834 2.41374 32449 ft 445 kts 101°
2026-05-04 12:03 51.10555 2.46276 32801 ft 445 kts 101°
2026-05-04 12:03 51.10276 2.51179 33169 ft 445 kts 101°
2026-05-04 12:04 51.09993 2.56079 33544 ft 445 kts 101°
2026-05-04 12:04 51.09710 2.60972 33918 ft 444 kts 101°
2026-05-04 12:04 51.09304 2.65819 34219 ft 439 kts 108°
2026-05-04 12:04 51.08528 2.70490 34494 ft 435 kts 112°
2026-05-04 12:05 51.07689 2.75124 34776 ft 436 kts 111°
2026-05-04 12:05 51.06860 2.79692 35054 ft 436 kts 111°
2026-05-04 12:05 51.06018 2.84315 35323 ft 436 kts 111°
2026-05-04 12:05 51.05170 2.88950 35548 ft 437 kts 111°
2026-05-04 12:06 51.04318 2.93591 35784 ft 438 kts 111°
2026-05-04 12:06 51.03466 2.98238 36038 ft 438 kts 111°
2026-05-04 12:06 51.02891 3.01373 36199 ft 438 kts 111°
2026-05-04 12:06 51.02035 3.06023 36452 ft 438 kts 110°
2026-05-04 12:07 51.01181 3.10663 36696 ft 437 kts 110°
2026-05-04 12:07 51.00327 3.15295 36922 ft 438 kts 110°
2026-05-04 12:07 50.98594 3.24642 37004 ft 446 kts 110°
2026-05-04 12:08 50.96825 3.34138 37000 ft 451 kts 110°
2026-05-04 12:08 50.95048 3.43646 36994 ft 452 kts 110°
2026-05-04 12:09 50.93241 3.53275 36993 ft 452 kts 110°
2026-05-04 12:09 50.91441 3.62761 37010 ft 453 kts 111°
2026-05-04 12:10 50.89624 3.72320 36998 ft 454 kts 110°
2026-05-04 12:10 50.87804 3.81888 37008 ft 454 kts 111°
2026-05-04 12:11 50.85967 3.91460 37007 ft 454 kts 111°
2026-05-04 12:11 50.84120 4.01024 37014 ft 455 kts 111°
2026-05-04 12:12 50.82261 4.10583 37018 ft 454 kts 111°
2026-05-04 12:12 50.80403 4.20134 37024 ft 455 kts 111°
2026-05-04 12:14 50.72875 4.58294 37027 ft 455 kts 111°
2026-05-04 12:15 50.70990 4.67737 37011 ft 454 kts 112°
2026-05-04 12:15 50.69083 4.77241 37021 ft 454 kts 112°
2026-05-04 12:16 50.67163 4.86740 37022 ft 455 kts 112°
2026-05-04 12:16 50.64868 4.95947 37025 ft 450 kts 120°
2026-05-04 12:17 50.62189 5.04848 37028 ft 450 kts 120°
2026-05-04 12:17 50.59504 5.13743 37007 ft 450 kts 120°
2026-05-04 12:18 50.56813 5.22640 36995 ft 451 kts 120°
2026-05-04 12:18 50.54109 5.31538 36999 ft 451 kts 120°
2026-05-04 12:19 50.51389 5.40444 37001 ft 452 kts 120°
2026-05-04 12:19 50.48668 5.49347 37009 ft 452 kts 120°
2026-05-04 12:20 50.45941 5.58240 36997 ft 452 kts 121°
2026-05-04 12:20 50.43206 5.67126 36997 ft 452 kts 121°
2026-05-04 12:21 50.40461 5.76007 36992 ft 453 kts 121°
2026-05-04 12:21 50.37701 5.84891 36998 ft 453 kts 121°
2026-05-04 12:22 50.34953 5.93703 37001 ft 453 kts 121°
2026-05-04 12:22 50.32180 6.02575 36983 ft 453 kts 121°
2026-05-04 12:23 50.29401 6.11438 36986 ft 454 kts 121°
2026-05-04 12:23 50.26609 6.20301 36990 ft 454 kts 121°
2026-05-04 12:24 50.23815 6.29148 36995 ft 454 kts 121°
2026-05-04 12:24 50.21001 6.37987 36996 ft 454 kts 121°
2026-05-04 12:25 50.17948 6.46574 36976 ft 448 kts 131°
2026-05-04 12:25 50.14005 6.54033 36982 ft 446 kts 135°
2026-05-04 12:26 50.09995 6.61414 37017 ft 446 kts 135°
2026-05-04 12:26 50.06018 6.68743 37023 ft 446 kts 135°
2026-05-04 12:27 50.02021 6.76122 37021 ft 446 kts 135°
2026-05-04 12:27 49.98014 6.83495 37017 ft 446 kts 135°
2026-05-04 12:28 49.93996 6.90841 37013 ft 446 kts 135°
2026-05-04 12:28 49.89971 6.98168 37018 ft 447 kts 135°
2026-05-04 12:29 49.85944 7.05499 37024 ft 446 kts 135°
2026-05-04 12:29 49.81914 7.12818 37030 ft 446 kts 135°
2026-05-04 12:30 49.77874 7.20120 37028 ft 446 kts 135°
2026-05-04 12:30 49.73836 7.27401 36995 ft 446 kts 135°
2026-05-04 12:31 49.69797 7.34685 37014 ft 446 kts 135°
2026-05-04 12:31 49.65755 7.41960 37024 ft 446 kts 135°
2026-05-04 12:32 49.59699 7.52775 37025 ft 445 kts 135°
2026-05-04 12:33 49.55645 7.59995 37025 ft 445 kts 135°
2026-05-04 12:33 49.51591 7.67205 37008 ft 445 kts 135°
2026-05-04 12:34 49.47538 7.74394 37008 ft 445 kts 135°
2026-05-04 12:34 49.43482 7.81565 37015 ft 444 kts 136°
2026-05-04 12:35 49.39422 7.88714 37018 ft 444 kts 136°
2026-05-04 12:35 49.35379 7.95815 37023 ft 444 kts 136°
2026-05-04 12:36 49.31314 8.02951 37000 ft 444 kts 136°
2026-05-04 12:36 49.27238 8.10073 37001 ft 444 kts 136°
2026-05-04 12:37 49.23158 8.17183 36983 ft 445 kts 136°
2026-05-04 12:37 49.19071 8.24288 36994 ft 445 kts 136°
2026-05-04 12:38 49.14979 8.31386 37005 ft 445 kts 136°
2026-05-04 12:38 49.13619 8.33743 37008 ft 446 kts 136°
2026-05-04 12:39 49.06810 8.45516 37018 ft 447 kts 136°
2026-05-04 12:39 49.02686 8.52604 37021 ft 446 kts 136°
2026-05-04 12:40 48.98557 8.59688 37007 ft 447 kts 135°
2026-05-04 12:40 48.94545 8.66911 37015 ft 446 kts 134°
2026-05-04 12:41 48.90595 8.74198 37008 ft 446 kts 134°
2026-05-04 12:41 48.86642 8.81449 36982 ft 445 kts 134°
2026-05-04 12:42 48.82658 8.88662 36981 ft 446 kts 134°
2026-05-04 12:42 48.78672 8.95813 36995 ft 447 kts 134°
2026-05-04 12:43 48.74660 9.03009 37005 ft 447 kts 135°
2026-05-04 12:43 48.70646 9.10201 37009 ft 447 kts 134°
2026-05-04 12:44 48.66627 9.17387 36995 ft 447 kts 134°
2026-05-04 12:44 48.62322 9.24075 36999 ft 440 kts 148°
2026-05-04 12:45 48.57031 9.28410 36994 ft 429 kts 165°
2026-05-04 12:45 48.51379 9.31296 36979 ft 429 kts 165°
2026-05-04 12:46 48.45749 9.34175 36723 ft 430 kts 165°
2026-05-04 12:46 48.42913 9.35624 36449 ft 430 kts 165°
2026-05-04 12:46 48.40076 9.37072 36186 ft 431 kts 165°
2026-05-04 12:46 48.37240 9.38519 35927 ft 431 kts 165°
2026-05-04 12:47 48.34399 9.39969 35673 ft 431 kts 165°
2026-05-04 12:47 48.31556 9.41416 35422 ft 431 kts 165°
2026-05-04 12:47 48.28710 9.42860 35173 ft 432 kts 165°
2026-05-04 12:47 48.25859 9.44301 34921 ft 432 kts 165°
2026-05-04 12:48 48.23008 9.45742 34663 ft 433 kts 165°
2026-05-04 12:48 48.20147 9.47191 34414 ft 434 kts 165°
2026-05-04 12:48 48.17282 9.48644 33711 ft 437 kts 165°
2026-05-04 12:48 48.14395 9.50109 33090 ft 435 kts 165°
2026-05-04 12:49 48.11551 9.51550 32617 ft 429 kts 165°
2026-05-04 12:49 48.08740 9.52972 32108 ft 425 kts 165°
2026-05-04 12:49 48.05948 9.54380 31595 ft 422 kts 165°
2026-05-04 12:49 48.03196 9.55850 31087 ft 420 kts 160°
2026-05-04 12:50 48.00637 9.57843 30586 ft 421 kts 151°
2026-05-04 12:50 47.98241 9.60368 30058 ft 421 kts 148°
2026-05-04 12:50 47.95877 9.62939 29483 ft 418 kts 148°
2026-05-04 12:50 47.93536 9.65476 28975 ft 414 kts 148°
2026-05-04 12:51 47.91208 9.67989 28460 ft 411 kts 148°
2026-05-04 12:51 47.88907 9.70473 27964 ft 407 kts 148°
2026-05-04 12:51 47.86619 9.72941 27468 ft 404 kts 148°
2026-05-04 12:51 47.84348 9.75385 26967 ft 402 kts 148°
2026-05-04 12:52 47.82085 9.77812 26502 ft 399 kts 148°
2026-05-04 12:52 47.79840 9.80214 26026 ft 397 kts 148°
2026-05-04 12:52 47.77602 9.82606 25577 ft 395 kts 148°
2026-05-04 12:52 47.75370 9.84992 25136 ft 393 kts 148°
2026-05-04 12:53 47.73152 9.87361 24694 ft 392 kts 148°
2026-05-04 12:53 47.70939 9.89723 24254 ft 391 kts 148°
2026-05-04 12:53 47.68759 9.92051 23818 ft 390 kts 148°
2026-05-04 12:53 47.66557 9.94403 23339 ft 390 kts 148°
2026-05-04 12:54 47.64360 9.96749 22877 ft 388 kts 148°
2026-05-04 12:54 47.62176 9.99080 22413 ft 386 kts 148°
2026-05-04 12:54 47.60000 10.01396 21957 ft 384 kts 148°
2026-05-04 12:54 47.57832 10.03695 21480 ft 382 kts 148°
2026-05-04 12:55 47.55674 10.05979 21000 ft 380 kts 148°
2026-05-04 12:55 47.53557 10.08222 20525 ft 367 kts 147°
2026-05-04 12:55 47.51513 10.10389 20068 ft 357 kts 147°
2026-05-04 12:55 47.49511 10.12507 19608 ft 351 kts 147°
2026-05-04 12:56 47.47532 10.14598 19149 ft 349 kts 148°
2026-05-04 12:56 47.45552 10.16687 18689 ft 350 kts 147°
2026-05-04 12:56 47.44240 10.18071 18386 ft 350 kts 148°
2026-05-04 12:56 47.42226 10.20088 17894 ft 349 kts 150°
2026-05-04 12:57 47.40178 10.21996 17427 ft 347 kts 151°
2026-05-04 12:57 47.38124 10.23840 16942 ft 344 kts 152°
2026-05-04 12:57 47.36073 10.25662 16484 ft 343 kts 151°
2026-05-04 12:57 47.34176 10.27799 16017 ft 346 kts 137°
2026-05-04 12:58 47.32695 10.30611 15534 ft 351 kts 124°
2026-05-04 12:58 47.31751 10.33952 15078 ft 357 kts 108°
2026-05-04 12:58 47.31247 10.37512 14585 ft 352 kts 104°
2026-05-04 12:58 47.30774 10.41022 14082 ft 347 kts 106°
2026-05-04 12:59 47.30309 10.44458 13859 ft 335 kts 105°
2026-05-04 12:59 47.29861 10.47746 13757 ft 320 kts 105°
2026-05-04 12:59 47.29425 10.50908 13611 ft 313 kts 106°
2026-05-04 12:59 47.28984 10.54055 13466 ft 314 kts 105°
2026-05-04 13:00 47.28624 10.57231 13330 ft 319 kts 96°
2026-05-04 13:00 47.28719 10.60493 13186 ft 317 kts 89°
2026-05-04 13:00 47.28883 10.63729 13047 ft 315 kts 89°
2026-05-04 13:00 47.29053 10.66923 12661 ft 313 kts 89°
2026-05-04 13:01 47.29222 10.70109 12129 ft 309 kts 89°
2026-05-04 13:01 47.29387 10.73250 11621 ft 306 kts 89°
2026-05-04 13:01 47.29547 10.76314 11153 ft 302 kts 89°
2026-05-04 13:01 47.29704 10.79374 10670 ft 297 kts 89°
2026-05-04 13:02 47.29857 10.82386 10194 ft 293 kts 90°
2026-05-04 13:02 47.30004 10.85346 9739 ft 287 kts 88°
2026-05-04 13:02 47.30147 10.88247 9282 ft 279 kts 86°
2026-05-04 13:02 47.30288 10.91060 8857 ft 272 kts 87°
2026-05-04 13:03 47.30426 10.93810 8453 ft 266 kts 88°
2026-05-04 13:03 47.30557 10.96503 8027 ft 261 kts 88°
2026-05-04 13:03 47.30685 10.99159 7602 ft 259 kts 87°
2026-05-04 13:03 47.30810 11.01787 7187 ft 254 kts 87°
2026-05-04 13:04 47.30931 11.04352 6803 ft 247 kts 88°
2026-05-04 13:04 47.30934 11.06855 6410 ft 242 kts 103°
2026-05-04 13:04 47.30432 11.09141 6014 ft 235 kts 116°
2026-05-04 13:04 47.29733 11.11330 5643 ft 231 kts 118°
2026-05-04 13:05 47.29042 11.13395 5304 ft 224 kts 117°
2026-05-04 13:05 47.28351 11.15441 4931 ft 222 kts 117°
2026-05-04 13:05 47.27687 11.17422 4559 ft 210 kts 117°
2026-05-04 13:05 47.27073 11.19273 4267 ft 193 kts 118°
2026-05-04 13:06 47.26517 11.20964 3955 ft 171 kts 116°
2026-05-04 13:06 47.26015 11.22482 3669 ft 160 kts 120°
2026-05-04 13:06 47.25534 11.23934 3457 ft 154 kts 120°
2026-05-04 13:06 47.25220 11.25411 3140 ft 150 kts 103°
2026-05-04 13:07 47.25245 11.26973 2831 ft 156 kts 86°
2026-05-04 13:07 47.25406 11.28509 2659 ft 153 kts 85°
2026-05-04 13:07 47.25578 11.30071 2396 ft 152 kts 85°
2026-05-04 13:07 47.25732 11.31592 2171 ft 152 kts 87°
2026-05-04 13:08 47.25887 11.33133 1956 ft 152 kts 87°
2026-05-04 13:08 47.26034 11.34548 1904 ft 119 kts 81°
2026-05-04 13:08 47.26137 11.35475 1894 ft 47 kts 81°
2026-05-04 13:08 47.26153 11.35710 1904 ft 14 kts 117°
2026-05-04 13:09 47.26116 11.35692 1891 ft 8 kts 242°
2026-05-04 13:09 47.26122 11.35602 1901 ft 10 kts 306°
2026-05-04 13:09 47.26139 11.35497 1904 ft 12 kts 261°
2026-05-04 13:09 47.26122 11.35349 1904 ft 15 kts 261°
2026-05-04 13:10 47.26078 11.35255 1904 ft 11 kts 182°
2026-05-04 13:10 47.26001 11.35273 1904 ft 9 kts 171°
2026-05-04 13:10 47.25943 11.35286 1895 ft 9 kts 171°
2026-05-04 13:10 47.25905 11.35270 1904 ft 5 kts 233°
2026-05-04 13:11 47.25896 11.35215 1896 ft 7 kts 261°
2026-05-04 13:11 47.25889 11.35138 1904 ft 8 kts 262°
2026-05-04 13:11 47.25866 11.35101 1905 ft 3 kts 192°
2026-05-04 13:11 47.25846 11.35106 1904 ft 3 kts 170°
2026-05-04 13:12 47.25831 11.35109 1896 ft 1 kts 172°
2026-05-04 13:12 47.25827 11.35110 1904 ft 0 kts 172°